GFSNGP_500_temp_000.txt.gz
Temp
-16 -16 -16 -16 -16 -16 -16 -16 -16 -16 -16 -16 -16 -16 -17 -17 -18 -18 -18 -19 -20 -20 -20 -20 -20 -20 -20 -20 -21 -21 -21 -21 -22 -22 -22 -22 -23 -24 -26 -27 -27 -27 -27 -27
-16 -16 -16 -16 -16 -16 -16 -16 -16 -16 -16 -16 -17 -17 -18 -19 -19 -19 -19 -20 -20 -21 -20 -21 -21 -21 -21 -21 -21 -21 -22 -23 -23 -23 -23 -24 -25 -27 -27 -27 -28 -28 -28 -28
-16 -16 -16 -16 -16 -16 -16 -17 -16 -16 -16 -17 -18 -18 -19 -19 -19 -19 -20 -20 -20 -20 -20 -21 -21 -21 -21 -21 -22 -23 -23 -24 -24 -24 -26 -27 -28 -28 -28 -28 -28 -28 -28 -28
-16 -16 -15 -17 -16 -17 -16 -17 -17 -17 -18 -18 -18 -19 -19 -20 -20 -21 -21 -20 -20 -21 -21 -21 -22 -22 -22 -23 -23 -24 -25 -24 -25 -26 -27 -28 -28 -28 -28 -28 -28 -28 -28 -28
-16 -15 -15 -17 -16 -16 -16 -17 -18 -18 -19 -19 -20 -20 -20 -20 -20 -21 -20 -20 -21 -21 -22 -22 -23 -23 -24 -24 -25 -25 -25 -25 -27 -28 -28 -28 -28 -28 -28 -28 -28 -28 -28 -29
-17 -16 -15 -18 -18 -18 -17 -17 -18 -18 -18 -19 -20 -20 -19 -20 -20 -21 -21 -22 -22 -22 -22 -23 -23 -24 -25 -25 -25 -25 -26 -27 -28 -29 -29 -29 -29 -29 -29 -28 -28 -29 -29 -29
-18 -17 -17 -19 -18 -18 -18 -17 -18 -19 -20 -20 -20 -21 -21 -21 -21 -22 -23 -23 -23 -23 -24 -24 -24 -25 -25 -25 -26 -27 -28 -29 -29 -29 -29 -29 -29 -29 -29 -29 -29 -29 -29 -29
-17 -18 -18 -19 -19 -20 -20 -19 -20 -20 -20 -20 -21 -21 -22 -22 -22 -23 -23 -23 -23 -24 -24 -25 -26 -26 -26 -27 -27 -29 -29 -29 -29 -29 -29 -29 -29 -29 -29 -29 -29 -29 -29 -29
-19 -18 -19 -20 -20 -20 -21 -20 -21 -21 -21 -21 -21 -22 -22 -22 -23 -23 -23 -24 -25 -25 -26 -26 -26 -27 -27 -28 -29 -29 -29 -29 -30 -30 -29 -29 -30 -30 -30 -30 -29 -29 -30 -30
-19 -19 -20 -20 -20 -21 -21 -21 -21 -21 -21 -22 -22 -22 -23 -23 -23 -24 -24 -25 -26 -26 -27 -27 -27 -27 -28 -29 -29 -29 -30 -30 -30 -30 -30 -30 -30 -30 -30 -30 -30 -30 -30 -31
-19 -20 -19 -20 -21 -20 -21 -21 -21 -22 -22 -23 -23 -23 -23 -23 -24 -25 -25 -26 -27 -27 -27 -27 -28 -29 -29 -30 -30 -30 -30 -30 -30 -30 -30 -30 -30 -31 -31 -31 -31 -31 -32 -32
-20 -21 -20 -20 -20 -20 -21 -21 -22 -23 -23 -23 -22 -23 -24 -24 -25 -27 -27 -27 -28 -28 -28 -28 -29 -30 -30 -30 -30 -30 -30 -30 -31 -30 -31 -31 -32 -33 -34 -34 -34 -34 -34 -33
-20 -21 -21 -21 -21 -21 -22 -22 -22 -23 -23 -23 -24 -25 -25 -26 -27 -27 -28 -28 -29 -29 -29 -30 -30 -30 -30 -30 -30 -30 -31 -31 -31 -31 -33 -33 -34 -35 -36 -36 -36 -35 -34 -34
-21 -21 -21 -22 -22 -22 -23 -23 -24 -23 -24 -26 -26 -26 -26 -27 -27 -28 -28 -29 -29 -30 -30 -30 -30 -30 -30 -30 -30 -30 -31 -31 -32 -34 -34 -35 -36 -36 -36 -35 -36 -35 -34 -34
-21 -21 -22 -22 -22 -23 -23 -24 -25 -25 -26 -26 -27 -27 -27 -27 -28 -29 -29 -30 -30 -30 -30 -30 -30 -30 -30 -31 -31 -31 -32 -33 -34 -35 -35 -36 -36 -35 -35 -35 -35 -35 -34 -34
-22 -22 -23 -23 -23 -24 -24 -25 -26 -26 -27 -27 -28 -28 -28 -28 -29 -30 -30 -30 -30 -30 -30 -30 -31 -31 -31 -31 -31 -32 -34 -35 -35 -35 -36 -36 -35 -35 -35 -35 -35 -34 -34 -33
-23 -23 -24 -24 -25 -26 -26 -27 -28 -28 -28 -28 -29 -29 -30 -30 -30 -30 -31 -31 -30 -30 -30 -31 -31 -31 -31 -31 -33 -34 -35 -35 -36 -36 -36 -36 -35 -35 -35 -35 -34 -34 -34 -33
-24 -25 -26 -26 -27 -27 -28 -28 -28 -28 -29 -29 -30 -30 -30 -31 -30 -31 -31 -30 -30 -30 -31 -31 -31 -31 -31 -32 -34 -34 -35 -35 -36 -36 -36 -36 -35 -35 -35 -34 -34 -33 -33 -33
-25 -26 -27 -27 -28 -28 -28 -29 -29 -30 -30 -30 -31 -31 -31 -31 -31 -31 -31 -31 -31 -31 -31 -31 -31 -31 -32 -33 -34 -35 -35 -36 -36 -36 -36 -36 -35 -35 -35 -34 -34 -33 -33 -32
-27 -28 -28 -28 -28 -29 -29 -30 -30 -30 -30 -31 -31 -31 -31 -31 -31 -31 -31 -31 -31 -31 -31 -31 -32 -32 -32 -34 -34 -35 -36 -36 -36 -36 -36 -36 -35 -35 -35 -34 -34 -33 -33 -32
-28 -28 -28 -29 -29 -30 -30 -31 -31 -31 -31 -31 -31 -31 -31 -31 -31 -31 -31 -31 -31 -32 -32 -32 -32 -32 -33 -33 -34 -35 -36 -36 -36 -36 -36 -36 -36 -35 -35 -34 -34 -33 -33 -32
-29 -29 -29 -30 -30 -30 -31 -31 -31 -31 -31 -31 -32 -32 -32 -31 -31 -31 -31 -31 -32 -32 -32 -32 -33 -33 -33 -33 -34 -35 -35 -35 -36 -36 -36 -36 -36 -35 -35 -34 -34 -33 -33 -32
-29 -30 -30 -30 -31 -31 -31 -31 -32 -32 -32 -32 -32 -32 -32 -31 -31 -31 -31 -32 -32 -32 -32 -33 -33 -33 -33 -34 -34 -35 -35 -36 -36 -36 -36 -36 -36 -35 -35 -35 -34 -34 -33 -32
-30 -31 -31 -31 -31 -31 -32 -32 -33 -33 -33 -33 -32 -32 -32 -32 -31 -31 -32 -32 -32 -32 -33 -33 -33 -33 -34 -34 -34 -34 -35 -36 -36 -36 -36 -36 -36 -35 -35 -35 -35 -34 -34 -33
-31 -31 -31 -31 -31 -32 -33 -34 -34 -33 -33 -33 -33 -32 -32 -32 -32 -32 -32 -32 -33 -33 -33 -33 -33 -33 -34 -34 -34 -35 -35 -35 -36 -36 -36 -36 -36 -36 -36 -35 -35 -35 -34 -34
-31 -32 -32 -32 -32 -33 -33 -33 -33 -33 -33 -33 -32 -32 -32 -32 -32 -32 -32 -32 -33 -33 -33 -33 -34 -34 -34 -34 -35 -35 -35 -35 -36 -36 -36 -36 -36 -36 -36 -36 -35 -35 -35 -34
-32 -32 -32 -32 -33 -33 -33 -33 -33 -33 -33 -32 -32 -32 -32 -32 -32 -32 -32 -33 -33 -34 -34 -34 -34 -34 -34 -35 -35 -35 -35 -36 -36 -36 -36 -36 -36 -36 -36 -36 -36 -36 -35 -35

GFSNGP_500_temp_003.txt.gz
Temp
-16 -16 -16 -16 -16 -16 -16 -16 -15 -16 -16 -17 -16 -16 -16 -17 -17 -17 -18 -19 -20 -20 -20 -20 -21 -21 -21 -21 -22 -22 -22 -23 -23 -24 -24 -24 -25 -26 -26 -27 -28 -29 -29 -29
-16 -16 -16 -16 -16 -16 -16 -17 -17 -16 -16 -17 -17 -17 -17 -18 -19 -19 -19 -20 -20 -20 -21 -21 -21 -22 -22 -22 -21 -23 -24 -24 -24 -25 -25 -26 -26 -28 -29 -29 -30 -29 -29 -29
-16 -16 -16 -17 -16 -16 -16 -17 -17 -16 -17 -17 -18 -19 -20 -20 -20 -20 -21 -21 -21 -21 -21 -21 -21 -21 -22 -23 -24 -24 -25 -25 -26 -26 -26 -27 -29 -29 -29 -29 -29 -29 -29 -29
-17 -16 -16 -17 -17 -16 -16 -17 -18 -17 -18 -19 -19 -19 -20 -20 -20 -21 -21 -21 -21 -21 -21 -22 -23 -24 -24 -24 -25 -26 -26 -26 -27 -27 -27 -29 -29 -30 -30 -29 -29 -29 -29 -29
-17 -16 -16 -17 -17 -17 -17 -16 -18 -18 -18 -19 -19 -20 -20 -21 -21 -21 -21 -21 -22 -22 -23 -23 -23 -23 -24 -25 -26 -26 -27 -27 -27 -27 -29 -30 -30 -30 -30 -30 -29 -29 -29 -29
-17 -17 -16 -18 -18 -18 -17 -16 -17 -18 -18 -20 -20 -20 -20 -20 -21 -21 -21 -21 -22 -23 -23 -24 -23 -24 -26 -26 -27 -28 -28 -28 -29 -30 -30 -30 -30 -30 -30 -30 -30 -30 -29 -30
-18 -17 -17 -19 -18 -18 -18 -18 -18 -19 -20 -21 -21 -21 -21 -21 -21 -22 -22 -22 -23 -24 -24 -24 -24 -25 -26 -27 -28 -28 -28 -29 -30 -30 -30 -30 -30 -30 -30 -30 -30 -30 -30 -30
-18 -18 -18 -19 -19 -19 -19 -18 -19 -20 -21 -21 -21 -21 -21 -21 -22 -22 -23 -24 -24 -24 -25 -25 -26 -26 -27 -28 -28 -29 -30 -30 -30 -30 -30 -30 -30 -30 -30 -30 -30 -30 -30 -30
-19 -19 -20 -20 -19 -19 -20 -19 -20 -21 -21 -21 -21 -21 -21 -22 -23 -24 -24 -24 -24 -25 -26 -26 -27 -27 -28 -28 -29 -30 -30 -30 -30 -31 -30 -30 -30 -30 -30 -30 -31 -31 -31 -32
-19 -20 -20 -20 -20 -20 -21 -21 -21 -21 -21 -22 -22 -22 -22 -23 -24 -24 -25 -25 -26 -26 -27 -27 -27 -28 -29 -30 -30 -30 -30 -31 -31 -31 -31 -31 -31 -31 -31 -32 -33 -34 -34 -34
-19 -19 -19 -20 -21 -21 -21 -21 -21 -22 -22 -22 -22 -23 -24 -24 -24 -25 -25 -26 -27 -27 -27 -27 -28 -29 -30 -30 -30 -30 -31 -31 -31 -31 -31 -32 -32 -33 -34 -34 -35 -35 -35 -35
-19 -19 -20 -19 -20 -22 -22 -22 -22 -22 -22 -22 -23 -24 -24 -25 -26 -26 -27 -27 -28 -28 -28 -29 -30 -30 -30 -30 -30 -31 -31 -31 -31 -31 -32 -33 -34 -35 -35 -35 -35 -35 -35 -35
-19 -19 -20 -21 -21 -21 -22 -22 -22 -22 -23 -23 -24 -25 -26 -27 -27 -27 -28 -28 -28 -29 -30 -30 -31 -30 -30 -30 -31 -31 -31 -31 -32 -33 -34 -35 -35 -36 -35 -35 -36 -36 -36 -35
-20 -21 -21 -21 -21 -22 -22 -22 -23 -23 -24 -25 -27 -27 -28 -29 -29 -29 -29 -29 -30 -30 -30 -31 -31 -30 -31 -31 -31 -31 -31 -32 -33 -34 -35 -35 -36 -35 -35 -35 -35 -36 -35 -35
-21 -21 -21 -22 -22 -22 -22 -23 -23 -24 -26 -28 -28 -28 -29 -29 -29 -30 -30 -30 -30 -31 -31 -31 -31 -31 -31 -31 -31 -31 -32 -33 -34 -35 -35 -35 -35 -35 -35 -35 -35 -35 -35 -35
-21 -22 -22 -22 -22 -23 -23 -24 -26 -27 -27 -28 -28 -29 -29 -30 -30 -31 -31 -31 -31 -31 -31 -31 -31 -31 -31 -31 -31 -32 -33 -34 -35 -35 -35 -35 -35 -35 -35 -35 -35 -35 -34 -34
-22 -23 -23 -23 -24 -25 -26 -27 -27 -27 -28 -29 -29 -30 -30 -30 -31 -31 -31 -31 -31 -31 -31 -31 -31 -31 -31 -31 -32 -32 -34 -34 -35 -35 -35 -36 -36 -35 -35 -35 -35 -34 -34 -34
-23 -24 -25 -25 -26 -26 -26 -28 -29 -29 -29 -29 -30 -30 -31 -31 -31 -31 -31 -31 -31 -31 -31 -31 -32 -32 -32 -32 -32 -33 -34 -34 -35 -35 -35 -36 -36 -35 -35 -35 -34 -34 -34 -33
-24 -24 -25 -26 -28 -28 -28 -29 -29 -29 -30 -30 -30 -31 -31 -31 -31 -31 -31 -32 -31 -31 -31 -32 -32 -32 -32 -32 -33 -33 -34 -34 -35 -35 -35 -36 -35 -35 -35 -34 -34 -34 -33 -33
-25 -26 -28 -28 -28 -29 -29 -29 -30 -30 -30 -31 -31 -31 -32 -32 -32 -32 -32 -31 -31 -31 -32 -32 -32 -32 -33 -33 -33 -33 -34 -34 -35 -35 -35 -35 -35 -35 -35 -35 -34 -34 -33 -33
-28 -28 -28 -29 -29 -29 -30 -30 -30 -30 -31 -31 -31 -32 -32 -33 -33 -32 -32 -32 -32 -32 -32 -32 -32 -33 -33 -33 -34 -34 -34 -34 -35 -35 -35 -35 -35 -35 -35 -35 -34 -34 -33 -33
-29 -29 -29 -29 -29 -29 -30 -30 -31 -31 -31 -32 -32 -33 -33 -33 -33 -32 -32 -32 -32 -32 -33 -33 -33 -33 -33 -33 -34 -34 -34 -34 -35 -35 -35 -36 -36 -36 -35 -35 -35 -34 -34 -33
-29 -29 -29 -30 -30 -30 -30 -31 -31 -32 -32 -33 -33 -33 -33 -33 -33 -32 -32 -32 -32 -32 -33 -33 -33 -33 -33 -34 -34 -34 -34 -35 -35 -35 -35 -36 -36 -36 -36 -35 -35 -35 -34 -34
-30 -30 -31 -31 -31 -31 -31 -32 -32 -33 -33 -33 -33 -33 -33 -33 -32 -32 -32 -32 -32 -32 -33 -33 -33 -34 -34 -34 -34 -34 -35 -35 -35 -35 -35 -36 -36 -36 -36 -36 -36 -35 -35 -34
-31 -31 -31 -31 -31 -31 -32 -32 -32 -33 -33 -33 -33 -33 -33 -33 -32 -32 -32 -32 -32 -32 -33 -33 -34 -34 -34 -34 -34 -34 -35 -35 -35 -36 -36 -36 -36 -36 -36 -36 -36 -36 -36 -35
-31 -31 -31 -31 -31 -32 -32 -32 -32 -33 -32 -33 -33 -33 -33 -33 -33 -33 -33 -33 -33 -33 -33 -33 -34 -34 -34 -34 -34 -34 -35 -35 -36 -36 -36 -36 -36 -36 -36 -36 -36 -36 -36 -36
-32 -32 -32 -32 -33 -32 -32 -32 -32 -32 -32 -33 -33 -33 -33 -33 -33 -33 -33 -33 -33 -33 -33 -33 -34 -34 -34 -34 -34 -35 -35 -36 -36 -36 -36 -36 -36 -36 -36 -36 -36 -36 -37 -36

GFSNGP_500_temp_009.txt.gz
Temp
-16 -16 -16 -16 -16 -17 -17 -17 -16 -17 -17 -17 -16 -17 -17 -17 -17 -17 -17 -17 -18 -18 -18 -18 -20 -21 -21 -22 -22 -22 -24 -25 -25 -25 -25 -26 -26 -26 -27 -27 -29 -30 -31 -31
-16 -16 -16 -16 -17 -17 -17 -17 -16 -17 -17 -17 -17 -17 -17 -17 -17 -17 -17 -18 -18 -18 -19 -21 -21 -21 -22 -22 -23 -24 -25 -26 -26 -26 -26 -27 -27 -28 -29 -30 -31 -30 -31 -31
-16 -16 -16 -16 -16 -17 -17 -18 -17 -17 -17 -17 -17 -17 -18 -17 -17 -18 -18 -18 -19 -20 -21 -21 -22 -23 -23 -24 -24 -24 -25 -26 -26 -26 -27 -28 -28 -30 -30 -30 -30 -31 -31 -31
-16 -16 -16 -17 -17 -16 -16 -17 -17 -17 -17 -18 -18 -18 -18 -18 -18 -18 -19 -19 -21 -21 -22 -23 -23 -23 -23 -23 -25 -26 -26 -26 -27 -28 -29 -29 -30 -31 -31 -31 -31 -31 -31 -31
-16 -16 -16 -18 -18 -17 -17 -17 -18 -17 -18 -18 -18 -18 -18 -19 -19 -20 -20 -22 -22 -23 -23 -23 -24 -24 -24 -25 -26 -26 -27 -28 -29 -29 -30 -31 -31 -31 -31 -31 -31 -31 -31 -31
-17 -17 -17 -18 -18 -18 -17 -17 -17 -17 -18 -18 -18 -18 -19 -19 -20 -20 -21 -22 -23 -23 -23 -24 -24 -25 -25 -26 -27 -27 -28 -29 -30 -30 -31 -31 -31 -31 -31 -31 -31 -31 -32 -32
-17 -17 -17 -18 -18 -17 -17 -17 -18 -18 -18 -18 -19 -19 -20 -20 -21 -22 -23 -22 -23 -23 -24 -24 -25 -26 -27 -28 -28 -29 -30 -30 -31 -31 -31 -31 -31 -31 -31 -31 -32 -33 -33 -34
-17 -18 -17 -18 -17 -18 -18 -18 -18 -19 -19 -19 -19 -20 -21 -22 -22 -23 -23 -23 -24 -24 -25 -26 -28 -28 -28 -29 -29 -30 -31 -31 -31 -31 -31 -31 -31 -31 -32 -33 -33 -34 -35 -35
-18 -18 -18 -18 -18 -18 -18 -19 -19 -20 -20 -20 -20 -21 -22 -22 -23 -24 -24 -25 -25 -26 -27 -28 -28 -29 -29 -30 -30 -31 -31 -31 -31 -31 -31 -31 -31 -32 -33 -34 -34 -35 -35 -35
-18 -18 -18 -19 -19 -20 -20 -20 -20 -21 -21 -21 -22 -22 -23 -23 -24 -24 -25 -26 -27 -27 -28 -28 -29 -30 -30 -30 -30 -31 -31 -31 -31 -31 -31 -32 -32 -33 -34 -35 -35 -35 -35 -35
-18 -19 -18 -20 -20 -20 -20 -20 -21 -21 -21 -22 -22 -23 -23 -24 -24 -25 -26 -27 -27 -28 -28 -29 -30 -30 -31 -30 -31 -31 -31 -31 -31 -32 -32 -32 -33 -34 -34 -35 -35 -35 -35 -35
-18 -19 -19 -19 -19 -20 -20 -20 -20 -21 -22 -23 -23 -24 -24 -24 -25 -26 -27 -28 -28 -29 -29 -30 -30 -30 -31 -31 -31 -31 -31 -32 -32 -32 -32 -33 -34 -35 -35 -35 -35 -35 -35 -35
-19 -19 -20 -20 -20 -21 -21 -21 -22 -22 -23 -23 -24 -24 -24 -25 -26 -27 -28 -29 -29 -30 -30 -30 -31 -31 -32 -32 -32 -31 -32 -32 -32 -32 -32 -33 -34 -35 -35 -35 -35 -35 -35 -35
-20 -20 -20 -21 -21 -21 -21 -22 -23 -23 -24 -24 -25 -25 -26 -27 -28 -29 -29 -29 -30 -30 -30 -31 -31 -32 -32 -32 -32 -32 -32 -32 -32 -32 -33 -33 -34 -35 -35 -35 -35 -35 -35 -35
-20 -20 -21 -21 -21 -22 -23 -23 -23 -24 -25 -25 -26 -27 -28 -28 -29 -29 -30 -30 -30 -30 -31 -31 -32 -32 -32 -32 -32 -32 -32 -32 -32 -32 -33 -33 -34 -35 -35 -35 -35 -35 -35 -34
-21 -21 -21 -22 -23 -24 -24 -24 -25 -25 -26 -26 -27 -28 -29 -29 -30 -30 -30 -30 -30 -31 -32 -32 -33 -32 -32 -32 -33 -33 -33 -33 -33 -33 -33 -34 -34 -35 -35 -35 -35 -35 -34 -34
-21 -22 -23 -24 -24 -24 -24 -25 -26 -26 -27 -28 -28 -29 -29 -30 -30 -30 -30 -31 -31 -32 -33 -33 -33 -32 -32 -33 -33 -33 -33 -33 -33 -33 -33 -34 -34 -35 -35 -35 -35 -35 -34 -34
-23 -24 -24 -24 -24 -25 -25 -26 -26 -27 -28 -29 -29 -29 -30 -30 -30 -31 -31 -32 -33 -33 -33 -33 -32 -32 -32 -33 -33 -33 -33 -33 -33 -33 -33 -34 -34 -35 -35 -35 -35 -35 -34 -34
-24 -24 -24 -25 -25 -26 -26 -27 -27 -28 -29 -29 -30 -30 -30 -31 -31 -32 -32 -33 -33 -33 -33 -32 -32 -32 -33 -33 -33 -33 -33 -33 -33 -34 -34 -34 -35 -35 -35 -35 -35 -35 -35 -34
-24 -25 -25 -26 -26 -27 -28 -28 -29 -29 -30 -30 -30 -30 -31 -31 -32 -32 -33 -33 -33 -33 -33 -32 -32 -32 -33 -33 -33 -33 -33 -33 -34 -34 -34 -34 -35 -35 -35 -36 -36 -35 -35 -35
-25 -26 -26 -27 -27 -28 -29 -29 -29 -30 -30 -31 -30 -31 -31 -32 -32 -32 -33 -33 -33 -33 -32 -32 -32 -33 -33 -33 -34 -34 -34 -34 -34 -34 -34 -34 -35 -35 -35 -36 -36 -36 -36 -35
-27 -27 -27 -28 -28 -29 -29 -30 -30 -30 -31 -31 -31 -31 -32 -32 -32 -32 -33 -33 -33 -33 -32 -32 -33 -33 -33 -33 -33 -33 -34 -34 -34 -34 -34 -35 -35 -35 -35 -36 -36 -36 -36 -36
-28 -29 -29 -29 -29 -30 -30 -30 -31 -31 -31 -32 -32 -32 -32 -32 -33 -33 -33 -33 -33 -33 -33 -33 -33 -33 -33 -33 -34 -34 -34 -34 -34 -34 -35 -35 -35 -35 -35 -36 -36 -36 -36 -36
-30 -30 -30 -30 -31 -31 -31 -31 -32 -32 -32 -32 -33 -33 -32 -32 -33 -33 -33 -33 -33 -33 -33 -33 -33 -33 -33 -34 -34 -34 -34 -34 -34 -34 -35 -35 -35 -35 -35 -36 -36 -36 -36 -36
-30 -30 -31 -31 -31 -32 -32 -32 -32 -32 -33 -34 -33 -33 -32 -32 -32 -33 -33 -33 -33 -33 -33 -33 -34 -33 -34 -34 -34 -34 -34 -34 -35 -35 -35 -35 -36 -35 -35 -36 -36 -36 -36 -37
-31 -31 -31 -32 -32 -33 -32 -32 -32 -33 -33 -33 -33 -33 -33 -33 -33 -33 -33 -34 -34 -33 -33 -34 -34 -34 -34 -34 -34 -34 -35 -35 -35 -35 -35 -36 -36 -36 -36 -36 -36 -37 -37 -37
-32 -32 -32 -33 -33 -33 -33 -33 -33 -33 -33 -34 -34 -33 -33 -33 -34 -34 -34 -34 -34 -34 -34 -34 -34 -34 -34 -34 -34 -35 -35 -35 -35 -36 -36 -36 -36 -36 -36 -36 -36 -37 -37 -37

GFSNGP_500_temp_012.txt.gz
Temp
-16 -16 -16 -16 -17 -17 -17 -16 -16 -17 -17 -17 -17 -17 -17 -18 -18 -18 -18 -18 -18 -18 -18 -18 -19 -20 -20 -22 -23 -23 -23 -23 -23 -24 -25 -25 -26 -27 -28 -29 -30 -30 -31 -31
-16 -16 -16 -16 -17 -17 -17 -17 -17 -17 -18 -18 -17 -17 -17 -18 -17 -17 -17 -18 -18 -18 -18 -19 -19 -21 -22 -22 -23 -23 -23 -23 -24 -25 -26 -26 -27 -29 -30 -31 -31 -31 -31 -31
-16 -16 -16 -16 -16 -16 -17 -17 -17 -18 -17 -17 -17 -17 -17 -18 -18 -18 -18 -18 -18 -19 -19 -20 -22 -23 -23 -23 -23 -23 -24 -25 -26 -27 -27 -28 -30 -30 -31 -31 -31 -31 -31 -31
-16 -16 -16 -17 -17 -17 -17 -18 -18 -18 -17 -17 -18 -18 -18 -18 -18 -18 -18 -19 -19 -20 -21 -22 -23 -23 -23 -23 -24 -25 -26 -27 -28 -28 -29 -30 -30 -31 -31 -31 -31 -31 -31 -31
-16 -16 -16 -17 -17 -17 -17 -18 -18 -18 -18 -18 -18 -18 -18 -18 -19 -19 -19 -20 -21 -22 -22 -23 -23 -24 -24 -25 -26 -27 -28 -28 -29 -30 -30 -31 -31 -31 -31 -31 -31 -31 -32 -32
-16 -17 -17 -17 -17 -17 -17 -17 -18 -18 -18 -18 -18 -18 -19 -19 -20 -21 -21 -22 -22 -23 -23 -24 -24 -25 -26 -27 -28 -28 -29 -29 -30 -30 -31 -31 -31 -31 -31 -31 -31 -32 -33 -33
-17 -17 -17 -17 -17 -17 -17 -18 -18 -18 -18 -18 -19 -19 -19 -20 -21 -21 -22 -22 -23 -23 -24 -25 -26 -26 -27 -28 -29 -29 -30 -30 -30 -31 -31 -31 -31 -31 -31 -32 -32 -33 -34 -34
-17 -17 -17 -17 -17 -17 -18 -18 -18 -18 -19 -19 -19 -19 -20 -21 -21 -22 -23 -23 -24 -24 -25 -26 -27 -28 -28 -29 -29 -30 -30 -31 -31 -31 -31 -31 -31 -31 -32 -32 -33 -34 -34 -35
-18 -18 -18 -17 -17 -18 -18 -18 -18 -19 -19 -19 -19 -20 -21 -22 -23 -23 -24 -24 -25 -25 -26 -27 -28 -29 -29 -29 -30 -31 -31 -31 -31 -31 -31 -32 -32 -32 -32 -33 -33 -34 -34 -35
-18 -18 -18 -18 -18 -18 -19 -19 -19 -20 -20 -20 -21 -21 -22 -22 -23 -24 -24 -25 -25 -26 -27 -28 -28 -29 -30 -30 -31 -31 -32 -32 -32 -32 -32 -32 -32 -32 -32 -33 -34 -34 -34 -35
-18 -19 -18 -19 -19 -19 -19 -19 -19 -20 -21 -21 -21 -22 -22 -23 -24 -24 -24 -25 -26 -27 -28 -29 -29 -30 -30 -30 -31 -32 -32 -32 -32 -32 -32 -32 -32 -32 -33 -34 -34 -34 -34 -34
-18 -18 -18 -18 -19 -19 -20 -20 -20 -20 -20 -21 -22 -23 -23 -24 -24 -25 -25 -26 -27 -28 -29 -29 -30 -30 -30 -31 -32 -32 -32 -32 -32 -32 -32 -32 -32 -33 -33 -34 -35 -34 -34 -35
-19 -18 -19 -19 -19 -19 -20 -20 -20 -21 -22 -22 -23 -24 -24 -24 -25 -26 -27 -28 -29 -29 -30 -30 -30 -31 -31 -32 -33 -33 -32 -33 -32 -33 -33 -32 -33 -33 -34 -35 -35 -35 -34 -35
-19 -19 -19 -19 -19 -19 -20 -20 -21 -22 -23 -23 -24 -24 -25 -26 -27 -28 -28 -29 -30 -30 -30 -30 -31 -32 -33 -33 -33 -32 -33 -33 -33 -33 -33 -33 -33 -33 -34 -35 -35 -35 -35 -34
-19 -19 -19 -20 -20 -20 -21 -22 -22 -23 -23 -24 -25 -25 -26 -27 -28 -29 -30 -30 -30 -30 -31 -31 -32 -33 -33 -33 -32 -32 -33 -33 -33 -33 -33 -33 -33 -34 -34 -35 -35 -35 -35 -34
-20 -20 -20 -21 -21 -22 -22 -23 -23 -24 -24 -25 -25 -26 -27 -28 -29 -29 -30 -30 -30 -31 -31 -32 -33 -33 -33 -32 -32 -33 -33 -33 -33 -33 -33 -33 -33 -34 -34 -35 -35 -35 -35 -34
-20 -21 -21 -22 -22 -23 -24 -24 -24 -25 -25 -25 -26 -27 -28 -29 -30 -30 -30 -31 -31 -32 -32 -33 -33 -33 -32 -32 -32 -33 -33 -33 -33 -33 -33 -33 -34 -34 -34 -35 -35 -35 -35 -34
-21 -22 -22 -23 -23 -24 -24 -24 -25 -25 -26 -27 -27 -28 -29 -30 -30 -30 -31 -31 -32 -32 -32 -33 -33 -33 -32 -32 -32 -33 -33 -33 -33 -33 -34 -34 -34 -34 -35 -35 -35 -35 -35 -35
-22 -23 -23 -24 -24 -24 -25 -25 -26 -27 -27 -28 -29 -29 -30 -30 -31 -31 -31 -32 -32 -32 -32 -33 -33 -33 -32 -32 -32 -33 -33 -34 -34 -34 -34 -34 -34 -34 -35 -35 -35 -35 -35 -35
-23 -24 -24 -24 -25 -26 -26 -27 -27 -28 -29 -29 -30 -30 -30 -31 -32 -32 -32 -32 -32 -32 -33 -33 -33 -33 -33 -32 -33 -33 -33 -34 -34 -34 -34 -34 -34 -35 -35 -35 -35 -35 -35 -35
-24 -25 -25 -26 -26 -27 -28 -28 -28 -29 -30 -30 -30 -31 -31 -31 -32 -32 -32 -32 -32 -33 -33 -33 -33 -33 -33 -33 -33 -33 -33 -34 -34 -34 -34 -34 -34 -35 -35 -35 -35 -35 -35 -36
-25 -26 -26 -27 -27 -28 -29 -29 -29 -30 -30 -31 -31 -32 -32 -32 -33 -32 -32 -32 -33 -33 -33 -33 -33 -33 -33 -33 -33 -33 -34 -34 -34 -34 -34 -34 -34 -35 -35 -35 -35 -35 -35 -36
-26 -27 -27 -28 -29 -29 -29 -30 -31 -31 -31 -32 -32 -32 -33 -33 -32 -32 -32 -32 -33 -33 -33 -33 -33 -33 -33 -33 -33 -34 -34 -34 -34 -34 -34 -34 -35 -35 -35 -36 -35 -35 -35 -36
-28 -28 -29 -29 -30 -30 -30 -31 -31 -32 -32 -33 -32 -32 -33 -33 -33 -33 -33 -33 -33 -33 -33 -33 -33 -33 -33 -34 -34 -34 -34 -34 -34 -34 -35 -35 -35 -35 -35 -36 -36 -36 -36 -36
-29 -30 -30 -30 -30 -31 -31 -32 -32 -32 -33 -33 -33 -33 -33 -33 -33 -33 -33 -33 -33 -34 -34 -34 -34 -34 -34 -34 -34 -34 -34 -34 -35 -35 -35 -35 -35 -36 -36 -36 -36 -36 -36 -36
-30 -30 -30 -31 -31 -32 -32 -32 -33 -33 -33 -33 -33 -33 -33 -33 -33 -34 -34 -34 -34 -34 -34 -34 -34 -34 -34 -34 -34 -34 -35 -35 -35 -35 -35 -35 -36 -36 -36 -36 -36 -37 -37 -37
-31 -31 -31 -31 -32 -32 -33 -33 -33 -33 -33 -33 -33 -33 -33 -33 -33 -33 -34 -34 -34 -34 -34 -34 -34 -34 -34 -34 -35 -35 -35 -35 -35 -35 -36 -36 -36 -36 -37 -37 -37 -37 -37 -37